Regional Weather Roundup
Issued by NWS

Home | Current Version | Previous Version | Graphics & Text | Print | Product List | Glossary Off
Versions: 1 2 3 4 5 6 7 8 9 10 11 12 13 14 15 16 17 18 19 20 21 22 23 24 25 26 27 28 29 30 31 32 33 34 35 36 37 38 39 40 41 42 43 44 45 46 47 48 49 50

380
ASUS43 KMKX 251900
RWRWI

WISCONSIN REGIONAL WEATHER ROUNDUP
NATIONAL WEATHER SERVICE MILWAUKEE/SULLIVAN WI
200 PM CDT WED MAY 25 2016

NOTE: "FAIR" INDICATES FEW OR NO CLOUDS BELOW 12,000 FEET WITH NO
SIGNIFICANT WEATHER AND/OR OBSTRUCTIONS TO VISIBILITY.

WIZ001-002-006>008-014>016-023>028-252000-
NORTHWEST WISCONSIN

CITY           SKY/WX    TMP DP  RH WIND       PRES   REMARKS
SUPERIOR ARPT  CLOUDY    46  46 100 E17G23    29.99F FOG
ASHLAND        CLOUDY    57  52  83 N14       29.98F
HAYWARD        CLOUDY    77  55  46 E12G17    29.90F
SIREN          LGT RAIN  64  60  89 W5        29.90F
CUMBERLAND     TSTM      68  61  77 S8G20     29.90S VSB 3/4
RICE LAKE      CLOUDY    75  59  56 SE16G24   29.90F
CHETEK         LGT RAIN  70  66  85 CALM      29.89F
LADYSMITH      CLOUDY    79  59  50 E15       29.93S HX  80
EAU CLAIRE     NOT AVBL
MENOMONIE      DRIZZLE   72  65  80 E8        29.85F
NEW RICHMOND   CLOUDY    67  65  96 NW13      29.87F
OSCEOLA        HVY RAIN  64  64 100 CALM      29.91F VSB 1
$$

WIZ003>005-009-010-017-018-252000-
NORTH CENTRAL WISCONSIN

CITY           SKY/WX    TMP DP  RH WIND       PRES   REMARKS
MANITOWISH WTR NOT AVBL
ARBOR VITAE    PTSUNNY   75  56  52 SE10G16   29.98F
WOODRUFF       PTSUNNY   75  56  52 SE10G16   29.98F
RHINELANDER    MOSUNNY   76  56  49 SE12      29.99F
EAGLE RIVER      N/A     74  52  44 E9        30.00F
LAND O LAKES   MOSUNNY   73  54  50 E8        30.03F
PHILLIPS       CLOUDY    76  59  56 E12       29.94F
TOMAHAWK       MOSUNNY   76  60  57 SE7       29.97F
MEDFORD        MOSUNNY   74  61  62 E12G17    29.93F
MERRILL        NOT AVBL
$$

WIZ029-030-035-036-043>047-252000-
CENTRAL WISCONSIN

CITY           SKY/WX    TMP DP  RH WIND       PRES   REMARKS
WAUSAU         MOSUNNY   76  59  55 E15G24    29.93F
MOSINEE        MOSUNNY   72  61  68 E12G20    29.96F
MARSHFIELD     SUNNY     77  61  57 E16       29.92F
STEVENS POINT  SUNNY     73  58  61 E15G22    29.95F
WAUPACA        MOSUNNY   78  59  51 NE8G17    29.97F
WAUTOMA        PTSUNNY   77  61  57 E17G23    29.93F
WISC RAPIDS    MOSUNNY   79  59  50 E15       29.92F HX  80
CAMP DOUGLAS   CLOUDY    81  70  69 E13G22    29.88S HX  84
$$

WIZ011>013-019>022-031-037>040-048>050-252000-
NORTHEAST WISCONSIN

CITY           SKY/WX    TMP DP  RH WIND       PRES   REMARKS
ANTIGO         SUNNY     74  62  65 SE14      30.00F
SHAWANO        MOSUNNY   76  61  59 E12       30.00F
OCONTO         MOSUNNY   69  58  68 E10G16    30.03R
STURGEON BAY   NOT AVBL
GREEN BAY      MOSUNNY   68  59  73 NE13      30.00F
MANITOWOC      PTSUNNY   61  55  82 NE12G18   30.02F
APPLETON       PTSUNNY   73  57  56 NE10G17   29.96F
CLINTONVILLE   PTSUNNY   73  59  60 E9        29.99F
OSHKOSH        SUNNY     75  61  61 E14G20    29.95F
$$

WIZ032>034-041-042-053>061-252000-
SOUTHWEST WISCONSIN

CITY           SKY/WX    TMP DP  RH WIND       PRES   REMARKS
LA CROSSE      TSTM      71  67  87 SW8       29.86F FOG
SPARTA         LGT RAIN  78  63  59 SE14      29.89R HX  80
VIROQUA        CLOUDY    75  62  63 SE7       29.90R
BOSCOBEL       CLOUDY    84  58  40 S10G20    29.86F HX  83
PRAIRIE DU CHI PTSUNNY   78  59  51 SE6       29.87S HX  80
PLATTEVILLE    PTSUNNY   83  60  46 S17       29.90F HX  83
$$

WIZ056-057-062-063-064-067-068-252000-
SOUTH CENTRAL WISCONSIN

CITY           SKY/WX    TMP DP  RH WIND       PRES   REMARKS
REEDSBURG      CLOUDY    82  64  54 SE10G16   29.88F HX  84
BARABOO/DELLS  CLOUDY    83  60  45 SE12G18   29.90F HX  83
LONE ROCK      NOT AVBL
MINERAL POINT  CLOUDY    82  55  39 S17G26    29.90F HX  82
MADISON        PTSUNNY   83  63  50 S17       29.90F HX  84
MIDDLETON      MOSUNNY   85  61  45 SE14G22   29.91F HX  85
WATERTOWN      MOSUNNY   84  63  50 S8G16     29.91F HX  85
MONROE         PTSUNNY   82  61  47 SE12      29.92S HX  83
JANESVILLE     MOSUNNY   84  61  45 SE13G20   29.92F HX  84
$$

WIZ051-052-058>065-066-070>072-252000-
SOUTHEAST WISCONSIN

CITY           SKY/WX    TMP DP  RH WIND       PRES   REMARKS
MILWAUKEE      PTSUNNY   60  52  74 NE10      29.98F
WAUKESHA       SUNNY     75  61  60 E12       29.97F
MILWAUKEE/TIMM SUNNY     68  52  56 E9        29.98F
RACINE         CLOUDY    63  52  67 NE9       29.98F
BURLINGTON     PTSUNNY   84  56  38 E13       29.94F HX  83
KENOSHA        CLOUDY    72  60  66 E13       29.96F
FOND DU LAC    SUNNY     79  61  53 E10       29.94F HX  80
SHEBOYGAN      SUNNY     63  55  75 NE14      30.00F
WEST BEND      SUNNY     73  61  64 NE10      29.97F
JUNEAU         MOSUNNY   79  65  61 SE10      29.94F HX  81
$$

LSZ147-162-252000-
LAKE SUPERIOR

STATION/POSITION TIME  TEMP    WIND        PRES    WAVE
                       AIR SEA DIR/SP/G            HT/PER
                 (UTC) (F)     (DEG/KT/KT) (MB)    (FT/S)
W MID LAKE BUOY  1750   39 38   50/ 16/ 19 1018.2F   2/ 4
DEVILS ISLAND    1800   43      50/ 19/ 22 1017.6F
PORT WING        1700   43      40/ 17/ 20 1017.3S
SAXON HARBOR     1800   46     360/  5/  6 1016.3F
$$

LMZ867-665-643>646-252000-
LAKE MICHIGAN

STATION/POSITION TIME  TEMP    WIND        PRES    WAVE
                       AIR SEA DIR/SP/G            HT/PER
                 (UTC) (F)     (DEG/KT/KT) (MB)    (FT/S)
CHAMBERS ISLAND  1800   55      20/ 10/ 11 1017.6F
N MID LAKE BUOY  1750   48 45   10/  8/ 10 1018.0F   0
NORTHPORT PIER   1800   58      70/  8/ 15 1017.9F
SISTER BAY       1820   66      20/  8/ 11   N/A
ALGOMA LAKESHORE 1702           60/ 17/ 20   N/A
KEWAUNEE LAKESHO 1800   51      30/  7/  9 1016.8F
SHEBOYGAN LAKESH 1800   49      40/ 11/ 12 1017.1F
PORT WASHINGTON  1840   54      40/ 12/ 16 1016.6F
S MID LAKE BUOY  1750   55 51  170/  4/  4 1016.0S   0
KENOSHA   LAKESH 1800   54      40/ 11/ 13 1015.2F
$$

TC  - TEMPERATURE IN CELSIUS
VSB - VISIBILITY IN STATUTE MILES
WCI - WIND CHILL INDEX
HX  - HEAT INDEX





USA.gov is the U.S. government's official web portal to all federal, state and local government web resources and services.